STARLINK-1122, 44949

Orbit data source: Space-Track

STARLINK-1122, 44949 is a payload satellite owned by SpaceX/Seattle (US) in LEO that was launched on Tue, 07 Jan 2020 UTC via an FALCON 9 launch vehicle from the Air Force Eastern Test Range (AFETR). Payloads include a variety of satellites, spacecraft, and rockets equipped with specific instruments for various scientific and technological missions. These include communications satellites like Starlink; space stations such as the ISS; scientific satellites like the Hubble; Earth observation satellites from companies like Planet Labs, Umbra, and HawkEye 360; GPS; miniature CubeSats for education and research; and military/defense satellites.

Loading next visibility...
STARLINK-1122 details
Identifier
44949, 2020-001AM
Orbit
LEO
Last TLE update21 hours ago
Origin
Flag of USSpaceX/Seattle (US)
ManufacturerSpaceX/Seattle
MissionOperational Commercial Communications
Bus & MotorSTARLINK, Unknown motor
Mass260 kg wet, ~248 kg dry
Launch date (UTC)
2020-01-07 (5 years ago)
Launch vehicle
FALCON 9
Launch site
Air Force Eastern Test Range (AFETR)
Object type
Payload
Rocket body
Debris
Shape & HBRBox + 1 Pan, 8.86 m
Radar Cross Section13.562 m², Large (>1 m²)

Expand to show TLE details & history

TLE from 21 hours ago
0 STARLINK-1122
1 44949U 20001AM  24360.60822386  .00000974  00000-0  84288-4 0  9997
2 44949  53.0572 137.7249 0003113 109.1210 251.0116 15.06398516273944
Epoch: 2024-12-25T14:35Z
Definitive object data (Epoch: 2024-12-25T14:35:50.541Z)
Latitude-0.00004°
Longitude-175.83525°
Altitude548.798 km
Speed7.588 km/s
True Right ascension09h 10m 53s
True Declination0° 00' 00"
Sunlit
Object was in full shadow at TLE epoch
Visualization TLE readout
Latitude-16.98075°
Longitude167.10835°
Altitude553.272 km
Speed7.585 km/s
Apparent Right ascension04h 53m 05s
Apparent Declination-56° 12' 42"
Sunlit
Object is in full shadow
Visualization observer readout
Local Sidereal Time10:33:30
Azimuth219.68° SW
Elevation-29.794°
Doppler factor1
Orbital elements
Apogee altitude549.642 km
Perigee altitude545.33 km
Semi-major axis6,925.623 km
Eccentricity0.0003113
Inclination53.0572°
RAAN137.7249°
Arg. of periapsis109.121°
True anomaly250.97787°
Mean anomaly251.0116°
Eccentric anomaly250.99474°
Mean motion3.76578 °/min
BSTAR0.000084288
Orbital period95.6 mins
Loading maneuver chart data...

STARLINK-1122 Visibility forecast

Observer location: undefined°, undefined

Span
Click to sort rows by Start time (UTC) header in descending order
Start Az.
Max El. time (UTC)
Max El. Az.
Max El.
End time (UTC)
End Az.
7 mins2024-12-26 11:27:11.622Z201.185° SSW2024-12-26 11:30:11.622Z148.002° SSE32.762°2024-12-26 11:34:11.622Z64.059° ENE
5 mins2024-12-26 13:08:11.622Z283.375° WNW2024-12-26 13:10:11.622Z332.83° NNW28.137°2024-12-26 13:13:11.622Z30.946° NE
6 mins2024-12-26 18:09:11.622Z326.845° NNW2024-12-26 18:12:11.622Z44.97° NE34.588°2024-12-26 18:15:11.622Z103.428° ESE
5 mins2024-12-26 19:49:11.622Z273.777° WNW2024-12-26 19:51:11.622Z232.48° WSW24.077°2024-12-26 19:54:11.622Z176.79° S
|